Weather History for KOSU - October, 2011

Change the Weather History Date:

Thursday, October 13, 2011

  Actual Average Record
Temperature  
Mean Temperature 60 °F -  
Max Temperature 66 °F 63 °F 82 °F (1997)
Min Temperature 53 °F 41 °F 32 °F (2006)
Degree Days  
Heating Degree Days 6    
Growing Degree Days 10 (Base 50)    
Moisture  
Dew Point 56 °F    
Average Humidity 91    
Maximum Humidity 100    
Minimum Humidity 68    
Precipitation  
Precipitation 0.12 in - - ()
Sea Level Pressure  
Sea Level Pressure 29.61 in    
Wind  
Wind Speed 3 mph (South)    
Max Wind Speed 8 mph    
Max Gust Speed -    
Visibility 5 miles    
Events Fog , Rain    
Averages and records for this station are not official NWS values.
T = Trace of Precipitation, MM = Missing Value Source: NWS Daily Summary

Daily Weather History Graph

Daily Weather History Graph

Search for Another Location

Airport or City:

Trip Planner

Search our weather history database for the weather conditions in past years. The results will help you decide how hot, cold, wet, or windy it might be!

Date:

Astronomy

Oct. 13, 2011 Rise Set
Actual Time 7:40 AM EDT 6:56 PM EDT
Civil Twilight 7:13 AM EDT 7:23 PM EDT
Nautical Twilight 6:41 AM EDT 7:54 PM EDT
Astronomical Twilight 6:10 AM EDT 8:26 PM EDT
Moon 7:31 PM EDT (10/13) 9:11 AM EDT (10/13)
Length of Visible Light 12h 10m
Length of Day
11h 15m
Full, 98% of the Moon is Illuminated
Oct 13
Full
Oct 19
Last Quarter
Oct 26
New
Nov 2
First Quarter
Nov 10
Full

Hourly Weather History & Observations

Time (EDT) Temp. Dew Point Humidity Pressure Visibility Wind Dir Wind Speed Gust Speed Precip Events Conditions
12:11 AM 57.2 °F 57.2 °F 100% 29.76 in 3.0 mi Calm Calm - N/A   Overcast
12:34 AM 57.2 °F 57.2 °F 100% 29.76 in 2.5 mi ESE 3.5 mph - N/A   Overcast
12:53 AM 57.9 °F 57.0 °F 97% 29.75 in 1.8 mi ESE 3.5 mph - N/A   Overcast
1:12 AM 57.2 °F 57.2 °F 100% 29.75 in 2.5 mi SSE 3.5 mph - N/A   Overcast
1:34 AM 57.2 °F 57.2 °F 100% 29.75 in 3.0 mi SSE 4.6 mph - N/A   Overcast
2:23 AM 59.0 °F 57.2 °F 94% 29.74 in 5.0 mi South 5.8 mph - N/A   Overcast
2:53 AM 57.9 °F 57.0 °F 97% 29.73 in 5.0 mi South 4.6 mph - N/A   Overcast
3:53 AM 57.9 °F 57.0 °F 97% 29.70 in 5.0 mi SSE 5.8 mph - N/A   Overcast
4:09 AM 57.2 °F 55.4 °F 94% 29.70 in 5.0 mi SSE 4.6 mph - N/A   Mostly Cloudy
4:31 AM 57.2 °F 55.4 °F 94% 29.71 in 5.0 mi South 3.5 mph - N/A   Mostly Cloudy
4:53 AM 57.0 °F 55.9 °F 96% 29.70 in 4.0 mi South 3.5 mph - N/A   Overcast
5:53 AM 57.0 °F 55.9 °F 96% 29.70 in 5.0 mi SSE 3.5 mph - N/A   Overcast
6:53 AM 55.9 °F 55.0 °F 97% 29.69 in 4.0 mi Calm Calm - N/A   Mostly Cloudy
7:04 AM 55.4 °F 55.4 °F 100% 29.69 in 1.5 mi Calm Calm - N/A   Mostly Cloudy
7:12 AM 53.6 °F 53.6 °F 100% 29.69 in 0.5 mi ENE 3.5 mph - N/A Fog Fog
7:24 AM 53.6 °F 53.6 °F 100% 29.69 in 0.2 mi Calm Calm - N/A Fog Fog
7:44 AM 55.4 °F 55.4 °F 100% 29.68 in 0.2 mi Calm Calm - N/A Fog Fog
7:53 AM 55.0 °F 55.0 °F 100% 29.68 in 0.2 mi Calm Calm - N/A Fog Fog
8:39 AM 55.4 °F 55.4 °F 100% 29.68 in 1.5 mi SE 6.9 mph - N/A   Scattered Clouds
8:53 AM 55.9 °F 55.9 °F 100% 29.68 in 1.5 mi SE 6.9 mph - N/A   Scattered Clouds
9:00 AM 55.4 °F 55.4 °F 100% 29.68 in 3.0 mi SE 5.8 mph - N/A   Clear
9:17 AM 57.2 °F 57.2 °F 100% 29.68 in 4.0 mi ESE 5.8 mph - N/A   Partly Cloudy
10:53 AM 60.1 °F 55.9 °F 86% 29.65 in 10.0 mi SE 6.9 mph - N/A   Scattered Clouds
12:53 PM 64.0 °F 55.9 °F 75% 29.61 in 10.0 mi ESE 8.1 mph - N/A   Mostly Cloudy
1:53 PM 64.0 °F 57.0 °F 78% 29.57 in 10.0 mi East 4.6 mph - 0.00 in   Overcast
2:22 PM 64.4 °F 55.4 °F 73% 29.56 in 10.0 mi Calm Calm - N/A   Mostly Cloudy
2:53 PM 66.0 °F 57.0 °F 73% 29.55 in 10.0 mi ESE 4.6 mph - N/A   Overcast
3:06 PM 64.4 °F 55.4 °F 73% 29.55 in 10.0 mi ESE 3.5 mph - N/A   Overcast
3:53 PM 66.0 °F 55.0 °F 68% 29.52 in 10.0 mi Calm Calm - N/A   Overcast
4:53 PM 66.0 °F 57.0 °F 73% 29.50 in 10.0 mi Calm Calm - N/A   Overcast
5:53 PM 66.0 °F 57.0 °F 73% 29.49 in 10.0 mi Calm Calm - N/A   Overcast
6:53 PM 64.0 °F 57.0 °F 78% 29.48 in 10.0 mi Calm Calm - N/A   Overcast
7:02 PM 64.4 °F 57.2 °F 77% 29.49 in 9.0 mi Calm Calm - N/A   Overcast
7:53 PM 63.0 °F 57.0 °F 81% 29.49 in 9.0 mi Calm Calm - 0.00 in Rain Light Rain
8:53 PM 61.0 °F 57.9 °F 90% 29.49 in 6.0 mi WSW 4.6 mph - 0.02 in Rain Light Rain
9:43 PM 60.8 °F 57.2 °F 88% 29.49 in 6.0 mi West 5.8 mph - 0.02 in Rain Light Rain
9:53 PM 60.1 °F 57.9 °F 93% 29.49 in 6.0 mi West 6.9 mph - 0.02 in Rain Light Rain
10:06 PM 60.8 °F 57.2 °F 88% 29.49 in 6.0 mi West 8.1 mph - 0.00 in Rain Light Rain
10:17 PM 59.0 °F 57.2 °F 94% 29.49 in 2.5 mi West 6.9 mph - 0.02 in Rain Rain
10:29 PM 59.0 °F 57.2 °F 94% 29.48 in 1.8 mi West 4.6 mph - 0.08 in Rain Heavy Rain
10:36 PM 59.0 °F 57.2 °F 94% 29.48 in 3.0 mi West 3.5 mph - 0.08 in Rain Light Rain
10:46 PM 59.0 °F 57.2 °F 94% 29.48 in 5.0 mi WSW 3.5 mph - 0.08 in   Overcast
10:53 PM 59.0 °F 57.9 °F 96% 29.47 in 5.0 mi SW 3.5 mph - 0.08 in   Overcast
11:44 PM 59.0 °F 57.2 °F 94% 29.47 in 6.0 mi SW 5.8 mph - N/A   Overcast
11:53 PM 59.0 °F 57.0 °F 93% 29.47 in 5.0 mi SW 8.1 mph - N/A   Overcast